Wind_Speed
54 56 58 59 60 61 62 62 62 62 62 61 61 60 60 60 60 60 59 59 59 58 58 58 58 58 58 58 58 58 58 58 58 58 58 59 59 60 61 61 62 62 63 64 64 65 65 65 66 66 67 67 67 67 67 68 68 68 68 67 66 66 66 66 68 68 65 62 60 59 58 57 56 56 55 54 53 53 53 53 52 51 49 46 45
53 54 55 57 58 60 61 61 62 62 62 62 62 62 62 62 62 62 61 61 60 60 60 60 59 59 59 60 60 60 60 60 60 60 60 61 62 63 64 64 65 65 66 67 67 68 68 68 68 69 69 69 68 68 68 68 68 67 66 65 63 62 62 62 63 64 62 59 58 56 55 54 53 53 53 53 53 54 54 54 52 51 49 47 46
55 55 56 57 58 59 59 59 60 60 61 62 62 63 64 64 64 64 63 63 63 62 62 62 62 62 62 62 62 62 62 62 62 62 63 63 64 65 65 66 66 67 68 68 69 69 69 69 69 69 69 69 67 66 66 65 65 64 62 61 60 59 59 59 59 60 59 58 56 55 54 54 53 53 53 54 54 54 54 53 51 51 50 49 48
58 58 58 58 59 59 59 59 59 59 59 60 61 61 62 63 63 63 64 64 63 63 63 63 62 62 62 62 61 61 61 61 61 61 61 62 62 63 64 65 66 67 68 68 68 68 68 67 67 67 66 65 64 62 61 61 60 60 58 58 57 57 57 58 58 58 59 58 56 55 56 56 55 55 55 54 53 53 52 52 51 51 51 51 50
60 60 59 59 59 59 59 59 58 58 58 58 59 59 60 60 60 60 61 61 60 60 60 59 59 58 58 57 57 57 57 57 57 58 59 60 61 62 64 65 66 66 67 67 67 66 66 65 64 63 63 61 60 59 58 57 57 57 56 56 56 56 56 57 57 58 59 59 57 57 57 57 57 56 56 55 54 53 52 52 53 53 54 53 53
60 59 58 58 59 58 58 57 56 56 56 56 57 57 57 57 57 57 57 56 56 55 55 54 54 53 53 53 53 53 54 55 56 58 60 62 63 64 65 65 65 65 65 64 64 63 62 62 61 60 60 59 58 57 56 56 56 55 55 55 55 56 56 57 58 58 59 59 58 57 57 57 57 56 55 55 55 54 54 54 54 55 55 55 55
58 57 57 57 57 56 55 55 55 55 55 55 54 54 54 53 53 53 52 52 52 51 51 50 50 50 50 51 52 54 55 58 60 62 63 65 65 65 65 65 64 63 62 61 60 59 59 59 58 58 57 57 56 56 55 55 54 54 54 54 54 55 55 56 57 58 58 58 57 56 56 55 55 55 55 56 56 56 57 57 55 56 57 57 57
56 56 56 56 56 56 55 55 55 55 55 54 54 53 52 52 52 52 51 51 51 50 50 50 50 51 52 53 55 57 59 61 62 64 66 66 67 66 65 63 62 61 59 58 58 57 57 56 56 55 55 54 54 53 53 52 52 52 52 52 53 53 54 55 55 56 57 57 56 56 55 54 55 56 57 58 59 60 61 62 60 59 61 61 60
56 56 56 56 56 56 56 56 56 55 55 54 53 53 53 53 53 53 53 53 53 52 52 52 53 54 55 57 58 60 61 62 64 66 67 67 66 65 63 61 59 58 56 56 55 54 53 52 52 51 51 50 50 50 50 49 49 50 50 51 52 53 54 54 56 57 58 58 58 58 58 58 58 61 62 62 64 64 65 66 65 64 65 65 64
57 57 56 56 55 55 55 55 55 54 54 53 53 53 53 54 54 55 55 55 54 54 54 54 55 56 58 59 60 62 63 64 65 67 67 66 64 61 59 57 55 54 53 52 51 50 49 49 48 48 48 48 48 48 48 48 49 50 51 52 53 55 56 57 59 60 61 61 62 63 64 63 64 66 66 67 68 68 68 69 68 68 68 68 67
56 56 56 55 55 55 55 55 55 55 54 54 54 55 56 56 57 57 57 56 56 55 55 56 57 58 59 60 62 63 65 66 67 67 65 63 60 57 55 53 51 50 49 49 48 48 47 47 47 47 47 47 47 48 48 50 51 52 54 55 57 59 60 61 62 64 65 65 65 67 68 68 68 70 71 71 71 72 71 72 72 71 72 72 70
56 56 57 56 57 57 57 57 57 57 56 57 57 58 58 59 59 58 58 57 56 56 57 57 58 59 61 62 64 65 66 67 67 66 63 60 56 53 51 50 49 48 47 47 46 46 46 46 46 46 47 48 49 50 52 53 54 56 57 59 60 62 64 65 65 66 67 68 68 69 70 71 71 71 72 73 73 74 74 73 73 73 73 72 71
57 58 58 59 59 60 60 60 59 59 59 59 60 60 60 60 59 58 58 57 57 57 57 58 59 61 63 64 65 66 67 67 66 63 59 56 53 51 49 48 47 47 46 46 46 46 46 47 48 49 50 51 52 53 54 56 57 58 60 61 63 64 65 66 67 67 69 70 71 71 72 73 72 72 73 74 74 75 74 73 73 73 72 71 70
59 60 60 61 61 62 62 62 61 61 61 61 61 60 60 59 59 58 58 58 58 58 59 60 62 63 64 66 67 67 67 66 63 59 56 53 51 49 48 47 46 46 46 46 47 47 48 49 50 52 53 54 54 55 56 57 58 59 61 62 64 65 66 67 69 70 71 73 73 73 74 75 75 75 75 76 76 76 75 74 73 73 72 71 69
61 61 61 62 62 63 63 62 62 62 62 61 61 60 60 60 60 59 60 60 61 61 62 63 64 65 66 67 68 67 66 64 61 58 55 52 50 48 47 47 47 47 47 48 48 49 50 51 52 53 54 55 56 56 57 58 59 61 63 65 66 68 69 71 71 72 73 74 74 74 74 75 75 74 74 74 74 74 74 73 72 72 71 69 67
63 62 62 62 62 62 62 62 61 61 61 61 60 60 61 61 61 62 63 64 64 64 64 65 65 66 67 68 67 66 65 62 59 57 54 52 50 49 49 49 49 49 49 50 51 51 52 52 53 54 55 56 57 58 59 60 62 64 65 66 67 69 70 71 71 71 71 72 72 72 72 72 72 71 71 71 71 71 70 70 69 69 68 67 64
64 64 63 62 62 62 61 61 61 61 61 61 62 62 63 64 64 65 66 66 66 65 65 65 65 66 67 67 67 65 63 61 58 55 53 52 52 51 51 51 51 51 52 52 53 53 53 54 54 55 56 57 58 60 61 62 62 62 63 63 63 64 66 67 67 67 68 68 69 69 68 68 67 67 66 67 67 67 66 66 66 66 66 65 64
65 64 64 64 64 63 63 63 63 64 64 65 65 65 65 66 66 66 67 66 66 65 65 65 65 66 66 67 66 64 63 61 58 56 55 54 53 53 53 53 53 53 53 53 54 54 55 55 55 56 57 58 58 58 58 57 57 57 57 58 59 60 62 63 63 64 64 64 64 63 62 62 61 61 61 62 62 63 63 63 63 64 64 64 63
68 67 66 66 66 66 67 67 66 67 67 66 66 66 66 66 65 65 66 66 65 65 65 65 65 66 67 67 67 65 64 62 60 58 56 55 55 54 54 54 54 54 53 54 54 55 56 56 56 56 56 55 53 52 51 52 53 55 56 57 58 59 60 61 61 61 61 60 59 59 58 57 57 57 58 59 60 61 62 62 63 63 63 63 63
70 70 70 69 69 69 69 68 67 66 66 65 65 65 65 64 64 63 64 64 65 66 66 67 67 67 68 68 67 65 63 61 60 58 58 57 57 56 56 55 54 53 53 54 55 55 55 55 55 54 51 49 48 49 51 53 55 56 57 58 59 59 60 60 60 60 59 58 57 57 56 56 56 56 56 57 58 60 61 63 63 64 63 63 62
66 67 68 69 70 70 69 69 68 67 66 65 64 64 65 66 65 63 64 64 66 67 68 69 69 69 68 67 65 64 63 62 60 60 60 59 58 57 56 55 54 53 54 54 54 54 54 54 53 51 49 49 50 52 54 56 57 58 59 60 60 60 59 58 58 58 58 57 57 56 56 55 55 55 55 55 56 57 59 61 63 64 64 64 62
64 64 65 66 67 67 67 66 66 66 66 67 66 67 69 71 69 67 67 68 69 70 70 71 70 68 67 65 63 63 63 62 62 61 61 60 59 58 56 55 54 53 53 53 53 53 53 52 52 51 51 52 54 56 56 57 58 59 60 60 60 59 58 57 57 57 57 57 56 55 55 54 53 53 54 54 55 55 57 59 61 63 64 64 64
66 66 66 65 64 63 61 61 62 64 67 69 70 70 72 74 74 72 72 72 71 70 69 68 66 65 64 63 62 63 63 64 63 62 61 60 58 57 55 55 54 53 53 53 54 54 53 53 53 54 55 56 57 58 58 59 59 60 60 60 59 58 57 57 57 57 56 56 55 54 54 53 53 54 54 54 54 55 56 57 59 61 63 64 64
70 69 67 65 64 62 62 64 66 69 71 73 74 75 76 77 77 76 74 71 68 65 64 64 64 64 63 63 63 64 65 64 63 62 61 59 57 56 55 55 55 54 54 55 55 55 55 55 55 56 57 58 59 60 60 60 61 61 60 59 58 58 57 57 57 57 57 56 56 55 54 55 55 55 56 56 55 55 56 57 58 59 61 62 63
67 66 65 65 66 67 68 70 72 73 73 72 71 71 72 74 75 73 68 64 63 62 62 62 63 64 64 64 64 65 65 64 63 62 60 59 58 57 56 56 56 56 56 56 56 56 56 57 58 59 60 61 61 61 62 62 62 61 60 59 59 59 58 58 58 58 58 58 58 57 57 57 57 58 58 58 58 58 57 58 58 59 60 61 62
67 67 66 66 67 69 71 72 71 70 68 67 65 65 66 68 69 68 64 62 63 63 62 63 64 64 65 65 65 66 65 64 63 62 61 60 58 58 58 58 58 58 58 58 58 58 59 59 60 61 63 63 63 63 63 63 62 61 61 60 60 60 60 60 60 60 61 61 61 60 60 59 59 59 60 60 60 60 59 59 59 59 60 61 61
68 68 69 69 70 72 73 72 70 69 68 68 69 69 68 67 67 67 66 65 65 64 63 64 65 66 66 66 66 65 64 64 63 62 61 60 59 59 60 60 60 60 60 60 60 61 61 62 63 64 65 65 65 65 64 64 63 62 62 61 61 61 61 61 62 62 63 63 63 62 62 61 60 60 61 61 61 61 61 61 61 60 61 62 61
64 66 68 70 71 70 70 69 69 69 69 69 69 69 68 67 66 67 68 68 66 64 65 66 66 66 65 65 64 64 64 64 63 63 62 61 61 61 61 61 61 62 62 62 63 63 64 65 66 67 67 67 67 67 66 66 65 64 63 63 63 63 63 63 63 63 64 64 64 64 63 63 62 62 62 63 63 62 62 63 63 62 62 62 62
64 66 69 71 72 71 70 70 69 68 68 69 68 67 66 65 65 67 69 68 66 64 65 65 65 64 64 63 63 63 64 64 63 63 62 62 62 62 63 63 63 64 64 65 65 66 67 67 68 68 68 68 68 68 68 68 67 66 65 65 65 64 64 64 64 64 64 65 65 65 65 64 64 64 64 64 64 64 65 65 65 64 64 63 63
67 68 70 72 73 73 71 68 67 67 68 68 67 66 66 66 67 68 68 66 65 64 64 64 64 63 63 63 64 63 64 64 63 63 63 63 63 64 64 65 65 66 67 68 68 68 69 69 69 69 69 69 70 70 70 70 69 68 67 67 66 66 65 65 65 65 65 66 66 66 67 66 66 66 66 66 66 66 66 67 67 67 66 65 64
67 68 68 69 70 68 66 65 65 65 65 65 65 66 66 67 68 69 68 66 65 64 64 64 64 63 63 64 64 63 63 63 63 63 64 64 65 65 66 67 67 68 69 70 70 71 71 71 71 71 72 72 73 73 73 72 71 70 69 68 67 67 67 66 66 66 66 66 67 68 68 69 69 69 69 69 68 67 68 68 69 68 68 67 65
66 66 67 68 67 65 63 63 64 64 64 64 65 66 67 68 68 68 67 65 64 64 64 64 64 64 64 64 64 64 64 64 64 64 65 66 67 67 68 69 70 71 72 73 73 73 74 74 74 74 74 75 75 75 75 74 73 71 70 69 68 68 67 67 67 67 67 67 68 68 69 70 71 72 72 72 71 70 70 70 70 69 68 68 66
64 65 65 65 63 62 62 64 65 65 66 66 66 66 67 67 67 66 65 63 62 63 63 64 64 65 65 65 65 65 65 65 65 66 67 68 69 70 71 72 72 74 75 75 75 75 76 76 76 76 76 77 77 77 76 75 73 72 71 70 69 68 68 68 67 67 67 68 68 70 71 72 74 75 75 74 74 73 72 71 70 70 69 69 68
62 63 62 61 60 60 63 65 66 66 67 67 67 66 65 64 63 63 62 62 62 62 63 63 64 65 65 66 66 66 66 67 67 68 69 70 71 72 73 74 75 76 76 77 77 77 77 78 78 79 79 79 78 77 76 75 73 72 71 70 70 69 69 68 68 68 69 70 71 72 73 75 76 77 77 76 75 74 73 71 70 70 70 70 69
60 61 61 62 62 63 64 65 65 66 66 66 66 66 64 62 61 61 61 62 63 63 64 65 65 66 66 67 67 68 68 69 70 71 72 72 73 75 75 76 77 77 78 78 79 79 80 80 81 80 80 79 78 77 76 75 74 73 72 72 71 70 70 70 71 72 73 74 75 76 77 77 78 78 78 78 77 75 74 72 71 70 69 69 70
60 61 61 62 63 64 65 65 65 65 65 65 65 65 64 63 62 62 63 64 65 66 66 67 68 68 69 70 70 70 71 72 72 73 74 75 75 76 77 78 79 79 80 80 81 81 82 81 81 80 79 78 78 77 76 75 75 74 73 72 72 71 72 73 74 75 76 77 77 78 78 78 79 80 80 79 78 77 76 75 73 71 69 69 69
61 61 62 63 64 64 65 65 65 65 65 65 65 65 65 64 64 65 66 67 68 69 70 70 71 71 72 72 73 73 74 74 75 76 76 77 78 78 79 80 80 81 82 82 83 82 82 81 80 79 79 78 77 76 76 75 74 74 73 73 74 74 75 76 77 78 78 78 78 78 79 80 80 81 81 81 80 80 79 78 76 74 72 70 69
63 63 63 63 64 64 65 65 66 66 66 67 67 67 67 67 68 68 69 70 72 72 73 74 74 74 74 75 75 75 76 76 77 77 78 79 80 80 81 82 82 83 84 84 83 82 81 80 80 79 79 78 77 76 75 75 75 75 76 76 77 78 78 79 79 79 79 79 80 80 81 82 82 83 83 83 82 82 81 80 79 77 75 73 72
65 65 65 66 66 67 67 67 68 68 69 70 70 70 71 72 72 73 73 74 75 76 77 77 77 77 76 76 76 77 77 77 77 78 79 79 80 81 82 83 84 84 83 82 82 81 80 80 80 79 78 77 77 77 77 77 77 78 79 79 80 80 80 79 80 80 81 81 82 83 84 85 85 86 86 86 86 85 84 83 81 81 79 77 76
65 66 68 69 70 71 71 71 71 71 72 73 73 74 74 75 76 77 77 78 78 78 78 78 77 77 77 77 77 77 77 78 78 79 80 81 82 83 84 84 83 82 81 81 81 80 80 79 78 78 78 78 78 78 78 79 79 80 80 80 80 80 81 81 82 83 84 84 85 86 87 88 88 89 89 90 90 89 88 87 86 86 85 83 82
66 67 68 69 70 70 71 71 72 73 74 75 76 76 77 77 78 78 78 78 78 78 77 77 76 76 77 77 78 78 79 80 80 81 82 83 83 83 83 82 82 81 81 80 80 79 79 79 79 79 79 79 79 79 80 81 81 82 82 82 83 83 83 84 85 86 87 88 89 90 91 91 92 92 92 93 94 94 94 94 93 93 92 90 89
69 70 70 70 70 70 71 72 74 75 76 76 77 77 77 77 77 77 76 76 76 76 77 77 77 77 78 79 79 80 80 81 81 82 82 82 82 81 81 81 81 81 80 80 80 80 80 80 80 80 80 80 81 81 82 83 83 84 85 85 86 86 87 88 89 90 91 91 92 93 93 94 94 95 96 97 98 98 99 99 100 100 100 99 98
71 72 73 73 73 73 74 75 76 76 77 77 77 77 77 76 76 76 76 76 77 78 78 78 79 79 79 80 80 80 81 81 81 81 81 80 80 80 80 80 80 80 80 81 81 81 82 82 82 82 82 83 83 84 85 86 86 87 87 88 89 90 91 92 92 93 94 95 95 95 96 96 98 99 100 101 102 103 105 106 107 107 106 104 103
75 76 77 77 76 75 75 76 76 77 77 76 76 76 77 77 77 77 77 78 79 79 79 79 79 79 79 79 80 80 80 80 80 80 80 80 80 80 80 80 80 80 81 82 82 83 83 83 84 84 84 85 85 86 87 88 89 90 91 91 92 93 94 95 96 96 97 97 97 98 99 100 101 102 104 106 108 108 107 103 98 93 89 87 86
77 79 80 80 78 77 76 76 76 76 76 76 76 76 77 77 77 77 77 78 78 79 79 79 79 79 79 79 79 79 79 80 80 80 80 80 80 80 80 81 81 81 82 83 83 84 84 85 85 85 85 86 86 87 88 89 91 92 93 94 95 96 97 98 98 98 99 101 102 102 103 104 106 107 108 107 102 95 86 78 71 67 64 63 64
78 78 79 79 78 76 75 75 75 75 75 75 76 76 76 76 77 77 77 77 77 78 78 79 79 79 79 79 79 80 80 81 81 81 80 80 80 80 81 81 82 83 83 84 85 85 86 86 86 86 86 87 88 89 90 92 93 95 96 97 98 99 99 99 100 102 103 105 106 106 108 109 109 105 97 86 76 68 62 59 57 57 56 55 54
79 80 80 80 79 77 76 76 76 76 76 76 76 76 75 76 77 78 78 78 77 78 78 78 79 79 79 79 80 80 80 81 82 82 82 81 81 81 82 82 83 83 84 85 86 87 87 88 88 89 89 90 91 92 94 95 97 98 99 100 100 100 101 103 104 105 106 108 110 111 109 103 93 81 69 61 57 56 55 55 55 55 53 51 52
77 79 80 80 80 79 80 81 81 79 78 77 76 76 76 76 77 78 79 79 79 79 79 79 79 79 79 79 79 79 80 82 83 84 84 84 83 83 83 83 84 84 85 87 88 88 89 90 91 91 92 93 94 96 98 99 100 100 101 101 102 104 105 106 107 108 110 111 109 102 91 78 66 58 55 54 55 55 54 53 52 51 50 49 50
78 78 79 80 80 80 81 82 82 81 80 79 79 79 79 79 80 80 81 81 81 80 80 80 79 79 79 79 80 81 83 84 85 85 86 87 86 86 86 86 87 87 88 89 89 90 91 91 92 93 94 95 97 98 100 100 101 102 103 104 105 106 107 109 110 110 106 98 87 75 65 58 55 54 54 54 54 53 52 50 49 48 48 49 50
81 81 81 81 81 81 81 81 81 81 81 81 82 82 83 84 84 85 85 86 86 85 85 85 84 83 83 82 84 87 88 88 88 88 88 88 89 89 89 90 91 91 91 92 92 92 93 93 94 95 96 97 98 99 100 102 103 104 105 106 107 108 109 108 103 93 81 71 63 59 57 56 55 53 52 52 51 50 49 48 48 48 48 49 50
84 84 83 83 83 83 83 82 82 83 83 84 85 86 87 88 88 89 89 89 89 89 88 88 87 87 88 89 91 92 92 91 91 91 91 91 92 93 93 94 95 95 95 95 95 95 95 96 96 96 97 98 99 100 101 102 103 104 105 106 106 104 99 90 77 66 60 57 55 53 52 52 50 49 49 48 48 47 47 47 47 47 48 49 50
Wind_Direction
270 270 270 269 268 267 266 265 265 264 264 264 264 264 264 264 264 264 265 265 266 266 267 267 268 268 269 270 270 271 272 273 273 274 275 276 277 278 279 279 280 281 282 282 283 283 284 284 285 286 286 287 288 289 290 290 291 292 293 293 294 294 295 295 295 295 295 296 297 297 298 298 298 297 297 296 295 294 294 294 294 293 293 294 296
275 275 274 272 271 269 268 267 265 264 264 263 263 263 263 264 264 265 266 266 266 267 267 267 268 268 269 269 270 270 271 272 273 273 274 275 276 277 278 278 279 279 280 281 281 282 282 283 285 286 286 287 288 289 290 291 291 292 292 293 294 295 296 296 297 297 296 297 298 299 298 298 298 297 297 296 296 296 295 294 293 293 293 295 298
277 277 276 274 272 270 269 268 267 266 264 263 263 263 263 263 264 265 265 266 267 267 267 268 268 268 269 269 270 271 272 272 273 274 275 275 276 277 277 278 278 279 280 280 281 282 283 284 285 286 287 288 289 289 290 290 291 291 292 294 295 296 297 297 298 298 298 298 298 298 298 297 297 297 297 297 297 297 296 295 293 293 295 296 299
277 277 275 274 272 270 269 268 267 266 265 265 264 263 263 263 264 264 265 266 266 267 267 268 268 269 270 270 271 272 273 274 274 275 275 276 276 277 278 278 279 279 280 281 282 283 284 285 285 286 287 287 288 289 289 290 291 292 293 294 295 296 297 298 298 298 298 298 298 297 297 297 298 298 298 299 299 298 297 296 295 296 298 300 301
277 275 274 272 270 269 268 267 266 266 265 265 265 265 265 264 265 265 265 266 266 267 267 267 268 268 269 270 271 272 273 274 275 276 277 278 278 278 279 279 280 280 281 282 283 284 284 285 285 285 286 287 288 288 289 290 291 293 294 295 296 296 297 297 297 298 298 298 298 298 298 299 299 300 300 300 299 299 298 298 299 301 301 301 301
273 271 270 269 268 267 267 266 265 264 264 264 264 264 265 265 265 265 265 265 265 266 266 266 267 267 268 269 271 273 274 276 277 278 279 279 279 279 280 280 281 281 282 282 283 283 284 284 285 285 286 286 287 288 289 290 291 292 294 294 295 296 297 297 298 298 299 299 299 299 299 300 300 300 300 299 298 298 298 298 300 301 301 300 300
266 265 265 265 265 265 264 264 263 263 263 263 263 264 264 264 264 264 264 264 264 264 265 265 267 268 269 271 273 275 278 279 280 281 280 280 280 280 281 281 282 282 282 283 283 283 284 284 284 285 285 286 287 288 289 290 291 292 293 294 295 295 296 296 297 298 298 299 300 300 300 300 300 299 298 297 297 297 297 297 298 299 298 298 299
260 261 261 261 262 262 262 262 262 262 263 263 263 263 264 264 264 264 264 264 265 265 266 267 268 270 272 274 276 279 281 282 282 282 281 281 281 281 282 282 283 283 283 283 283 283 284 284 284 285 285 286 287 288 289 289 291 292 292 293 294 294 295 295 296 297 298 299 299 299 299 299 298 297 296 296 296 296 296 296 297 297 296 297 297
257 257 258 258 259 260 260 261 261 261 261 262 262 262 262 263 264 264 265 265 265 266 266 268 269 271 274 276 279 281 282 282 282 281 281 281 282 282 283 283 283 283 283 283 283 283 283 284 284 285 286 286 287 288 289 289 290 291 292 293 294 294 295 295 296 296 297 298 299 298 298 298 297 296 296 296 296 295 295 295 296 296 295 295 295
254 254 255 256 256 257 258 258 258 258 258 259 259 260 261 262 263 264 263 263 264 264 265 268 270 273 275 277 279 281 282 282 281 281 281 281 282 282 282 282 282 282 282 282 282 282 283 283 284 285 286 286 287 288 290 291 291 292 293 294 295 295 295 295 296 296 296 298 298 298 297 297 297 296 296 295 295 294 294 294 294 294 293 293 293
250 251 252 253 253 254 254 255 255 255 256 256 257 259 260 261 261 262 261 262 262 263 266 269 272 274 276 278 279 280 281 280 280 280 280 281 281 281 281 280 280 280 280 281 282 282 283 284 285 285 286 288 289 290 291 292 293 294 295 295 295 295 295 295 296 296 296 297 297 297 297 297 297 296 295 295 295 295 295 294 294 294 293 292 292
249 250 250 251 251 251 252 252 253 253 254 255 256 257 258 259 259 259 259 260 262 265 268 271 274 275 276 277 278 278 279 279 279 279 279 280 279 279 279 278 279 279 280 281 282 283 284 285 286 287 288 289 291 292 293 294 294 295 295 295 295 295 295 295 295 296 296 297 297 297 296 296 296 295 295 295 295 294 294 294 294 293 293 293 293
248 249 249 249 249 250 250 251 252 252 253 254 255 256 257 257 258 258 259 261 263 267 270 273 275 276 276 276 276 276 277 277 277 277 277 277 277 276 276 277 278 279 280 281 282 283 285 286 287 288 290 291 292 293 294 294 294 295 295 295 295 295 294 295 295 296 297 297 296 296 296 295 295 295 295 295 295 295 294 295 295 295 295 296 296
248 248 248 247 247 248 249 250 251 251 252 253 254 255 256 257 257 259 261 263 266 269 272 274 274 274 274 274 274 274 275 275 275 275 275 274 274 274 275 276 277 278 280 281 283 284 286 287 288 289 290 291 292 292 293 293 293 294 294 294 294 294 295 295 296 297 297 297 297 296 296 296 297 297 297 297 297 297 297 297 298 298 298 299 299
245 245 245 245 246 246 248 249 250 251 252 253 254 255 256 258 260 262 265 268 270 272 273 273 272 272 272 272 272 273 273 273 273 273 273 273 273 273 274 275 277 279 280 282 283 284 285 286 287 288 289 290 291 291 292 292 293 293 294 294 295 295 296 296 297 297 297 297 297 298 298 298 299 299 299 300 300 300 300 301 301 300 300 301 301
243 243 243 244 245 246 247 248 250 251 253 254 256 258 260 262 265 267 269 271 273 273 272 271 270 270 270 271 271 271 272 272 271 271 271 271 271 272 273 275 277 278 280 281 282 283 284 285 286 287 288 289 290 291 292 293 293 293 293 294 295 295 296 296 296 297 297 297 298 298 298 299 300 301 301 301 302 302 302 303 303 303 302 302 302
242 242 242 244 245 246 247 250 252 254 256 258 260 262 264 266 268 269 271 272 271 270 269 268 268 268 269 270 270 270 270 270 269 269 268 269 269 271 273 274 276 277 279 280 282 283 284 284 285 286 287 288 290 291 291 292 292 293 293 294 295 295 296 296 297 297 297 297 297 298 298 299 300 301 302 302 303 303 303 304 304 304 304 304 303
244 244 245 246 248 249 251 254 256 259 260 262 264 266 267 268 269 269 269 268 268 267 266 266 266 266 267 268 268 268 267 267 267 266 266 267 269 270 272 273 275 276 278 280 281 281 282 283 284 285 286 287 288 289 290 291 293 294 295 295 295 295 295 296 297 297 297 297 298 298 300 300 301 302 303 303 303 303 304 304 304 303 304 304 304
251 251 252 253 254 255 256 258 261 263 265 266 268 269 269 268 267 266 265 264 264 264 264 264 265 265 265 265 265 265 264 264 264 264 265 266 267 269 270 271 273 275 277 278 279 280 281 282 283 284 285 286 286 288 290 292 294 295 295 295 295 296 296 296 297 297 297 298 299 300 301 301 302 302 303 303 304 304 304 304 304 303 303 303 303
257 257 258 259 260 260 261 263 265 266 267 269 270 270 268 265 263 262 261 261 261 261 261 261 261 261 261 261 261 261 261 261 261 262 263 264 265 267 269 272 273 275 275 276 277 279 281 282 283 283 283 284 285 287 290 292 294 295 295 295 296 296 296 297 297 297 297 298 299 299 300 300 301 302 302 303 303 304 304 304 303 303 303 303 303
259 259 260 261 262 263 264 265 266 267 268 269 270 267 264 262 262 261 259 258 258 258 258 257 257 257 257 257 257 258 259 259 260 260 262 263 265 267 270 271 272 272 273 274 276 278 280 281 281 282 282 283 285 288 290 292 294 295 295 294 294 295 296 296 297 297 297 298 298 299 299 299 300 301 302 302 302 303 303 302 302 302 302 302 302
260 260 261 262 263 264 264 264 265 266 267 268 267 263 260 259 259 258 257 255 254 254 253 253 253 253 254 255 256 258 259 260 260 260 262 263 265 267 269 269 269 270 272 274 276 277 278 279 279 280 281 283 285 287 289 291 292 292 292 291 292 293 295 296 296 296 296 297 298 298 299 299 300 301 302 302 303 303 302 301 300 300 301 301 301
261 262 262 261 262 263 262 263 264 265 265 265 264 260 258 256 253 252 251 250 250 251 252 253 254 254 255 256 257 259 261 261 262 262 263 264 265 266 267 267 268 269 271 273 275 276 276 277 278 279 281 283 285 286 288 289 290 290 290 290 290 292 295 296 296 296 296 297 298 298 298 298 299 300 301 302 303 303 302 301 299 298 299 299 300
261 261 260 260 261 262 263 264 265 264 264 264 263 260 258 254 249 248 249 250 252 254 256 257 258 259 258 258 258 260 262 262 262 263 264 264 265 265 265 266 267 269 270 272 273 273 275 276 278 279 281 283 285 286 287 288 289 290 290 289 290 292 294 295 295 296 296 296 297 298 298 298 299 300 302 302 303 303 302 301 300 298 297 297 298
258 259 259 260 261 261 262 262 263 262 262 264 264 264 262 257 252 250 251 253 257 260 261 262 263 262 260 259 258 260 261 262 262 263 264 264 264 264 264 265 267 268 270 271 271 272 274 276 278 280 281 283 284 285 286 287 288 289 290 291 291 292 293 294 294 295 295 295 295 296 297 298 299 300 301 302 303 302 302 301 300 299 297 296 296
258 259 260 260 260 259 259 259 260 261 262 264 265 266 265 262 258 254 253 258 263 265 265 264 263 262 260 259 259 259 260 261 262 263 264 264 264 264 264 266 268 269 270 271 271 273 274 276 278 279 281 282 283 284 285 286 287 289 291 292 292 293 293 293 294 294 295 294 294 295 295 296 297 299 301 302 302 302 301 300 300 299 296 295 294
259 259 259 258 258 258 259 259 261 263 265 266 266 266 265 263 257 254 257 264 268 267 264 262 260 259 258 258 259 260 261 262 263 263 264 264 264 265 266 267 269 270 271 271 272 273 274 276 278 279 280 281 282 283 284 285 287 289 290 292 293 294 294 294 294 294 294 294 294 294 294 295 296 297 299 301 301 301 300 299 299 298 296 294 293
258 257 256 256 256 257 258 260 262 264 266 266 264 262 260 257 254 255 263 269 269 266 263 261 258 257 257 258 259 260 262 263 263 263 264 264 264 265 266 268 269 270 271 271 272 274 275 276 277 278 279 280 281 283 284 285 287 289 291 292 293 294 295 295 295 295 295 294 294 293 293 294 295 296 298 299 300 300 299 299 298 297 296 294 292
255 254 255 255 256 257 258 259 261 263 264 265 264 261 259 256 257 262 267 268 266 264 262 260 258 257 257 257 259 260 262 263 264 264 264 264 264 265 267 268 269 270 271 272 273 274 275 276 277 278 280 281 282 283 285 286 288 290 292 293 294 295 295 295 296 296 296 295 294 293 292 292 293 295 297 298 299 299 298 298 297 297 295 294 292
254 254 255 256 256 257 258 259 260 261 262 263 263 263 262 262 264 266 267 266 264 262 260 258 258 257 257 258 260 261 262 264 264 264 264 264 265 266 268 269 270 271 272 273 274 275 276 277 278 279 281 282 283 284 285 286 288 290 291 293 294 294 295 295 296 295 295 294 293 292 291 291 292 294 295 297 298 298 298 297 297 296 295 294 292
253 254 255 255 256 257 258 258 258 259 260 261 261 262 262 263 264 264 265 265 263 260 258 257 257 258 259 260 262 262 263 264 264 265 265 265 266 267 269 270 271 272 273 274 275 276 277 278 279 280 281 282 283 284 285 286 288 289 291 292 293 294 294 295 295 295 294 294 293 292 291 290 291 292 294 295 296 296 297 296 295 294 294 293 291
252 253 254 255 255 255 255 256 256 257 258 259 260 260 261 261 262 263 263 262 260 258 256 257 259 260 262 262 263 264 264 264 265 265 266 266 268 269 270 271 272 273 274 275 276 277 278 279 280 281 282 283 284 285 286 287 288 289 290 291 292 293 293 294 294 294 294 294 293 291 290 290 291 292 294 295 295 296 296 295 294 293 292 291 290
251 251 252 253 254 254 253 254 255 257 258 259 260 260 260 260 261 261 261 259 258 257 257 258 260 261 263 263 264 264 265 265 265 265 266 266 267 269 270 271 272 274 275 276 277 278 279 280 282 283 284 285 285 285 286 287 288 289 290 291 291 292 293 293 294 294 294 293 292 291 291 291 292 293 294 294 295 295 295 294 293 291 290 289 288
249 250 251 251 251 252 253 253 255 256 258 259 261 261 261 260 260 260 260 259 260 260 260 261 262 262 263 264 264 264 265 266 266 266 267 267 268 269 270 271 273 274 275 276 278 279 281 282 283 284 285 285 285 285 286 287 288 289 289 290 291 293 293 294 294 294 294 294 293 293 293 293 293 294 294 294 294 294 293 292 291 290 289 287 286
250 250 250 250 250 251 253 255 256 257 258 259 260 261 261 261 261 260 261 261 262 263 263 264 264 264 265 265 265 265 266 266 267 267 268 268 269 270 272 273 274 275 277 278 280 281 282 283 284 284 284 285 285 286 286 287 288 289 290 291 292 293 294 295 295 295 295 295 295 295 294 294 294 294 294 294 294 293 293 292 291 289 287 286 284
250 250 251 252 253 254 255 256 257 258 259 259 260 260 261 261 261 261 262 263 263 264 265 265 265 266 266 266 267 268 268 269 269 270 271 271 272 273 274 275 276 277 279 280 281 282 283 283 284 284 284 285 285 286 287 287 288 290 291 292 292 293 294 295 295 295 296 296 295 295 295 295 295 294 294 294 294 293 293 292 291 289 287 285 283
251 251 252 253 254 255 256 257 258 258 259 259 260 261 262 262 262 263 264 264 265 265 266 267 267 268 268 269 269 270 271 271 272 272 273 274 274 275 276 277 278 279 280 281 281 282 283 283 283 284 284 285 285 286 287 288 290 290 291 292 293 294 295 295 295 295 295 295 295 295 295 295 295 294 294 294 293 293 293 292 291 290 288 285 283
251 252 253 254 255 256 257 257 258 259 260 260 261 262 263 263 264 264 265 265 266 266 267 267 268 269 270 271 271 272 272 273 273 274 275 275 276 277 278 278 279 280 280 281 281 282 283 283 284 284 285 286 287 288 289 289 290 291 292 293 294 295 295 295 295 295 295 296 296 296 296 295 295 295 294 294 293 293 293 292 291 290 288 287 285
253 254 255 255 256 257 258 259 259 260 261 261 262 262 263 264 264 264 265 265 265 266 267 267 268 269 270 271 272 273 273 274 275 275 276 277 277 278 278 279 279 280 280 281 282 282 283 284 284 285 286 287 288 289 290 290 291 292 293 294 295 295 296 296 296 296 296 296 296 296 296 296 296 295 294 294 294 293 293 292 291 290 288 287 286
259 259 259 259 259 259 259 260 260 261 261 262 262 263 263 264 264 265 265 266 266 266 267 268 269 269 270 271 272 273 273 274 275 275 276 276 277 277 277 278 279 280 280 281 282 282 283 284 285 286 287 288 289 290 291 292 293 294 295 296 296 296 296 297 297 297 297 297 296 296 296 296 296 295 295 295 295 294 294 293 292 290 289 287 286
262 261 261 261 260 260 260 260 261 261 262 262 263 263 264 264 265 265 266 266 266 267 267 268 269 269 270 271 271 272 272 273 273 273 274 275 275 276 277 278 279 279 280 281 281 282 284 285 286 287 288 290 291 292 293 294 295 295 296 296 296 297 297 297 297 297 296 296 296 296 296 296 296 296 296 296 295 294 293 292 291 289 287 286 284
261 261 261 260 260 259 259 260 260 261 261 261 262 262 263 263 264 264 265 265 266 266 267 268 268 269 269 270 270 271 272 272 272 273 274 275 276 276 277 278 279 279 280 281 282 284 285 286 287 289 290 291 292 293 294 294 295 295 296 296 296 296 296 296 296 296 296 296 295 295 296 296 296 296 295 295 293 292 291 290 289 287 285 283 281
260 260 259 259 258 257 257 258 258 259 260 260 261 261 262 262 263 264 265 265 266 267 268 268 269 269 270 271 271 272 272 273 273 274 275 276 276 277 278 278 279 280 281 283 284 285 286 287 289 290 291 292 292 293 293 294 294 295 295 295 296 296 296 296 296 295 295 295 295 295 296 296 295 295 294 293 292 291 290 289 288 287 285 283 280
259 258 258 258 258 257 257 257 257 258 259 260 261 262 263 263 264 265 266 266 267 268 268 269 269 270 271 271 272 272 273 273 274 275 275 276 277 278 278 280 281 282 283 284 286 287 288 289 289 290 291 291 292 292 293 293 294 294 295 295 295 295 295 295 295 295 295 295 296 295 295 295 294 294 294 293 293 292 291 290 288 286 285 283 281
256 255 255 255 256 256 256 256 257 258 259 260 261 263 264 265 265 266 267 268 268 269 269 269 270 271 271 272 273 273 274 274 275 276 277 278 279 280 281 282 283 284 285 286 286 287 288 289 289 290 290 291 291 292 292 293 293 294 294 295 295 295 295 295 295 295 296 296 296 295 295 295 295 295 295 294 293 291 290 289 287 287 286 285 285
252 252 253 254 255 256 257 257 257 259 260 262 263 264 265 265 266 267 267 268 269 269 269 270 270 271 271 272 273 274 274 275 276 277 279 280 281 282 282 283 284 285 285 286 287 287 288 288 289 289 290 290 291 291 291 292 293 293 294 294 294 295 295 295 296 296 296 295 295 295 296 296 297 296 294 292 290 289 288 288 288 288 287 287 286
251 251 252 253 255 258 260 262 263 263 264 264 264 264 264 265 265 267 268 268 269 269 269 270 270 271 272 273 274 275 276 278 279 280 280 281 281 282 282 283 284 285 285 286 287 287 288 288 289 290 290 290 291 291 291 292 292 293 294 294 295 296 296 296 296 296 296 296 297 297 298 297 296 293 290 288 287 286 287 287 287 287 287 286 286
255 254 254 254 255 257 260 263 265 266 266 266 266 266 266 266 266 267 268 269 269 270 270 271 272 272 274 275 276 277 278 279 280 280 281 281 282 282 282 282 283 284 285 285 286 287 287 288 289 289 290 290 290 291 292 292 293 294 295 296 297 297 297 297 297 298 298 298 298 298 297 295 291 288 286 286 286 286 286 286 286 286 285 285 285
259 258 258 258 259 259 260 261 262 262 262 264 265 266 266 267 267 268 269 269 270 270 271 271 272 272 273 274 275 277 278 278 278 279 280 280 281 281 282 282 283 283 284 285 285 286 287 287 288 288 289 290 290 291 292 294 295 296 297 298 298 298 298 299 300 300 299 298 297 296 293 291 289 287 287 286 286 285 285 284 283 283 283 284 284
260 260 260 260 261 261 262 262 262 262 262 262 263 264 265 266 266 267 267 268 268 268 268 269 269 269 270 271 273 275 276 276 277 277 278 279 280 281 281 282 283 283 284 284 285 285 286 287 287 288 289 290 291 293 294 295 297 298 298 299 299 300 300 301 300 299 297 295 293 292 291 290 289 287 286 286 285 284 283 283 282 282 282 283 283
261 262 262 262 262 262 262 263 263 264 264 264 264 264 264 265 265 265 266 266 266 267 267 268 268 269 269 271 273 274 275 276 276 277 278 279 280 280 281 282 283 284 284 285 285 286 286 287 288 289 290 292 293 294 296 297 298 299 299 300 300 301 301 299 297 294 291 289 289 288 288 287 287 286 285 285 284 283 283 283 282 282 283 283 284
Height
5748 5748 5749 5750 5750 5751 5751 5752 5753 5753 5754 5754 5755 5755 5755 5755 5756 5756 5756 5756 5756 5757 5756 5756 5756 5755 5755 5754 5754 5753 5753 5752 5751 5751 5751 5750 5749 5747 5746 5745 5744 5743 5741 5739 5738 5737 5736 5734 5731 5729 5728 5727 5726 5723 5721 5719 5717 5716 5713 5712 5710 5706 5705 5703 5703 5709 5712 5708 5704 5702 5699 5697 5696 5693 5690 5688 5685 5682 5680 5677 5674 5672 5670 5668 5666
5741 5741 5742 5742 5743 5744 5744 5745 5746 5746 5747 5747 5748 5748 5748 5748 5748 5749 5749 5749 5749 5750 5749 5749 5749 5749 5748 5748 5747 5747 5746 5745 5745 5745 5744 5743 5742 5741 5739 5739 5737 5736 5734 5732 5730 5729 5729 5727 5724 5722 5720 5720 5719 5716 5714 5712 5710 5709 5707 5704 5703 5700 5697 5696 5695 5697 5702 5702 5697 5694 5693 5690 5688 5686 5683 5681 5679 5676 5673 5671 5667 5665 5663 5661 5660
5733 5733 5734 5735 5735 5736 5736 5737 5738 5739 5739 5740 5740 5740 5740 5741 5741 5742 5742 5741 5742 5742 5742 5742 5742 5742 5741 5741 5740 5740 5739 5738 5738 5738 5737 5736 5735 5733 5732 5731 5730 5728 5726 5724 5723 5722 5721 5720 5717 5715 5713 5713 5711 5709 5707 5705 5703 5702 5700 5697 5696 5694 5691 5689 5688 5688 5691 5694 5692 5687 5685 5684 5682 5679 5676 5674 5672 5669 5667 5664 5661 5659 5657 5655 5653
5725 5725 5726 5726 5726 5727 5728 5729 5730 5730 5731 5731 5732 5733 5733 5733 5734 5734 5734 5734 5734 5734 5734 5734 5734 5734 5734 5733 5732 5732 5731 5731 5730 5730 5729 5728 5727 5726 5724 5723 5722 5721 5719 5716 5715 5714 5713 5712 5710 5708 5707 5706 5704 5702 5700 5698 5696 5695 5694 5691 5689 5688 5685 5682 5681 5680 5681 5685 5686 5681 5678 5677 5675 5672 5670 5668 5665 5662 5660 5657 5655 5653 5651 5649 5647
5717 5717 5718 5717 5718 5719 5719 5720 5721 5721 5722 5723 5723 5724 5724 5725 5725 5726 5726 5726 5726 5726 5726 5727 5726 5726 5726 5725 5725 5724 5724 5724 5723 5722 5722 5721 5720 5718 5717 5716 5714 5713 5711 5709 5707 5706 5705 5704 5702 5700 5700 5699 5697 5695 5693 5691 5690 5688 5687 5685 5683 5681 5680 5677 5674 5673 5672 5674 5677 5676 5671 5669 5668 5666 5662 5660 5658 5656 5653 5651 5648 5647 5645 5643 5640
5709 5709 5710 5710 5710 5711 5711 5712 5712 5713 5714 5714 5715 5715 5716 5717 5717 5718 5718 5718 5718 5719 5718 5719 5718 5718 5718 5718 5718 5717 5717 5716 5716 5715 5714 5713 5712 5711 5709 5708 5706 5705 5703 5702 5700 5699 5698 5697 5695 5694 5693 5692 5690 5688 5687 5685 5684 5682 5681 5679 5677 5675 5673 5671 5668 5666 5665 5665 5667 5668 5665 5662 5660 5658 5655 5652 5650 5648 5646 5644 5643 5641 5638 5637 5635
5700 5701 5702 5703 5703 5704 5705 5705 5705 5706 5706 5707 5708 5708 5709 5709 5710 5710 5711 5711 5711 5711 5711 5711 5711 5711 5711 5711 5710 5710 5709 5709 5708 5707 5706 5705 5704 5702 5701 5700 5698 5697 5696 5694 5693 5692 5691 5690 5689 5688 5686 5685 5684 5682 5681 5679 5678 5676 5674 5672 5671 5669 5666 5664 5661 5659 5658 5658 5658 5658 5657 5656 5653 5650 5648 5644 5642 5640 5637 5636 5638 5635 5630 5629 5628
5692 5693 5694 5695 5696 5697 5697 5698 5699 5699 5700 5700 5701 5702 5702 5702 5703 5703 5703 5703 5703 5703 5704 5704 5704 5703 5703 5703 5702 5702 5701 5701 5700 5699 5698 5696 5695 5694 5692 5691 5690 5689 5688 5687 5686 5685 5684 5683 5682 5681 5680 5678 5677 5676 5674 5673 5672 5670 5668 5665 5664 5662 5660 5658 5655 5653 5651 5651 5651 5649 5649 5649 5646 5642 5640 5637 5634 5632 5629 5626 5628 5628 5623 5621 5621
5684 5686 5686 5687 5688 5689 5690 5691 5692 5692 5693 5694 5694 5695 5695 5695 5696 5696 5696 5696 5696 5696 5696 5696 5696 5695 5695 5695 5694 5693 5693 5692 5691 5690 5689 5688 5686 5685 5684 5683 5682 5682 5681 5679 5678 5677 5677 5676 5675 5674 5673 5672 5670 5669 5667 5666 5665 5663 5661 5659 5657 5654 5653 5651 5648 5646 5644 5643 5643 5641 5640 5640 5638 5633 5631 5629 5625 5623 5621 5617 5617 5617 5613 5612 5613
5676 5677 5678 5679 5680 5682 5683 5683 5684 5685 5686 5687 5687 5687 5688 5688 5689 5689 5689 5689 5689 5689 5689 5688 5688 5687 5687 5686 5685 5685 5684 5683 5682 5681 5680 5679 5679 5677 5677 5676 5675 5674 5673 5672 5671 5670 5670 5669 5668 5667 5666 5665 5663 5662 5660 5659 5657 5656 5654 5652 5649 5647 5645 5643 5640 5638 5636 5636 5635 5632 5630 5631 5629 5624 5621 5620 5616 5613 5612 5608 5606 5606 5602 5602 5604
5667 5668 5670 5671 5673 5674 5675 5675 5677 5677 5678 5679 5679 5679 5680 5680 5680 5680 5680 5681 5681 5681 5681 5680 5680 5679 5678 5678 5677 5677 5676 5675 5674 5673 5673 5672 5671 5670 5669 5668 5668 5667 5666 5666 5664 5663 5663 5662 5662 5661 5659 5658 5657 5655 5654 5652 5650 5648 5646 5644 5641 5639 5637 5635 5633 5630 5628 5627 5626 5623 5620 5620 5620 5615 5611 5610 5607 5604 5602 5599 5596 5595 5592 5590 5592
5659 5660 5662 5664 5665 5666 5667 5668 5669 5669 5670 5670 5670 5670 5671 5671 5672 5672 5672 5672 5672 5672 5672 5672 5671 5671 5670 5670 5669 5669 5668 5667 5666 5666 5665 5665 5664 5663 5662 5661 5660 5660 5660 5659 5658 5656 5656 5655 5654 5654 5652 5651 5650 5648 5647 5645 5643 5641 5638 5636 5633 5630 5628 5626 5625 5623 5621 5618 5618 5616 5611 5609 5610 5607 5601 5600 5598 5595 5593 5590 5586 5584 5582 5580 5580
5651 5653 5654 5656 5657 5658 5659 5659 5660 5660 5661 5661 5661 5662 5662 5663 5663 5663 5663 5664 5664 5664 5664 5663 5663 5662 5661 5661 5661 5661 5660 5659 5658 5658 5658 5658 5656 5655 5655 5654 5653 5653 5653 5653 5651 5650 5649 5648 5647 5646 5645 5644 5643 5641 5639 5637 5635 5633 5630 5628 5625 5622 5620 5618 5616 5615 5613 5610 5609 5608 5604 5600 5600 5598 5592 5589 5589 5586 5583 5581 5578 5575 5573 5571 5570
5643 5645 5646 5647 5648 5649 5650 5651 5651 5651 5652 5652 5653 5654 5654 5654 5655 5655 5655 5655 5655 5656 5656 5655 5655 5654 5653 5653 5653 5653 5653 5652 5651 5651 5651 5650 5649 5648 5648 5647 5646 5646 5646 5645 5644 5643 5643 5642 5640 5638 5637 5637 5636 5634 5633 5631 5628 5626 5623 5620 5618 5615 5612 5610 5608 5607 5604 5601 5600 5599 5595 5591 5589 5587 5582 5579 5577 5575 5573 5572 5569 5566 5564 5563 5562
5635 5636 5637 5638 5639 5640 5641 5642 5643 5643 5644 5644 5645 5645 5646 5646 5647 5647 5647 5647 5647 5648 5648 5647 5647 5646 5645 5645 5646 5646 5645 5644 5644 5644 5643 5643 5642 5641 5640 5639 5638 5638 5638 5638 5637 5636 5635 5635 5634 5632 5630 5629 5628 5627 5625 5624 5621 5619 5616 5614 5611 5608 5604 5602 5602 5599 5596 5593 5591 5589 5586 5582 5578 5576 5573 5570 5567 5565 5562 5561 5559 5556 5555 5555 5554
5626 5627 5629 5630 5631 5632 5633 5634 5634 5635 5635 5636 5637 5637 5638 5638 5639 5639 5639 5639 5639 5640 5640 5639 5639 5638 5637 5637 5638 5638 5637 5636 5636 5636 5636 5636 5635 5634 5633 5632 5631 5631 5631 5630 5629 5628 5628 5628 5626 5625 5623 5621 5620 5619 5617 5616 5614 5612 5610 5608 5605 5601 5597 5595 5595 5593 5589 5586 5584 5581 5578 5574 5570 5567 5565 5562 5559 5556 5554 5553 5550 5547 5546 5545 5546
5618 5619 5621 5622 5623 5624 5625 5626 5626 5627 5627 5628 5629 5629 5630 5630 5631 5631 5631 5631 5631 5632 5632 5632 5632 5631 5630 5629 5630 5630 5629 5628 5628 5628 5628 5628 5627 5627 5626 5625 5624 5624 5623 5623 5621 5620 5620 5620 5619 5617 5616 5614 5613 5611 5609 5607 5606 5605 5604 5602 5600 5596 5592 5590 5589 5586 5582 5580 5577 5574 5572 5568 5564 5561 5557 5554 5552 5549 5547 5546 5542 5539 5538 5536 5536
5611 5612 5613 5614 5615 5616 5616 5617 5618 5618 5619 5620 5621 5621 5622 5622 5623 5623 5623 5622 5623 5623 5623 5623 5623 5623 5622 5621 5621 5622 5622 5621 5620 5621 5620 5620 5619 5619 5618 5617 5617 5617 5616 5615 5613 5612 5611 5612 5611 5610 5608 5607 5605 5603 5601 5600 5599 5598 5597 5596 5594 5591 5587 5585 5584 5580 5577 5574 5571 5568 5566 5562 5558 5556 5552 5548 5545 5542 5540 5539 5536 5533 5531 5529 5527
5603 5604 5604 5605 5606 5607 5607 5608 5609 5610 5610 5611 5612 5612 5613 5613 5613 5613 5613 5613 5614 5614 5614 5614 5614 5614 5614 5613 5612 5612 5613 5612 5612 5612 5612 5612 5611 5611 5610 5610 5610 5610 5609 5607 5605 5604 5603 5603 5603 5602 5601 5600 5598 5596 5594 5593 5592 5591 5589 5588 5587 5585 5582 5580 5578 5575 5572 5570 5566 5563 5561 5557 5553 5551 5547 5543 5540 5536 5533 5532 5529 5526 5525 5523 5520
5593 5593 5594 5595 5596 5597 5599 5600 5600 5601 5601 5602 5602 5602 5603 5603 5603 5603 5604 5604 5604 5604 5604 5604 5604 5604 5604 5604 5602 5602 5603 5604 5604 5603 5604 5604 5603 5602 5602 5603 5603 5602 5601 5599 5598 5596 5595 5595 5594 5594 5594 5593 5591 5589 5587 5585 5584 5583 5580 5579 5578 5577 5575 5573 5571 5568 5566 5565 5562 5559 5556 5552 5549 5546 5543 5539 5536 5532 5528 5525 5522 5519 5518 5516 5514
5582 5583 5584 5586 5587 5588 5590 5591 5592 5593 5593 5593 5593 5592 5592 5592 5593 5593 5594 5594 5594 5593 5593 5593 5593 5593 5593 5594 5593 5592 5593 5594 5595 5595 5595 5595 5595 5595 5594 5595 5596 5595 5593 5592 5591 5590 5588 5587 5586 5586 5585 5584 5582 5580 5578 5576 5575 5573 5572 5570 5569 5568 5567 5566 5563 5561 5559 5558 5556 5553 5550 5547 5544 5541 5538 5535 5532 5528 5525 5521 5517 5513 5511 5509 5507
5572 5573 5575 5576 5577 5579 5580 5581 5582 5583 5583 5583 5583 5583 5583 5582 5582 5583 5582 5582 5582 5583 5582 5582 5582 5583 5583 5583 5584 5583 5583 5584 5585 5586 5586 5586 5586 5587 5587 5587 5588 5588 5586 5585 5583 5583 5582 5580 5579 5578 5577 5576 5573 5571 5570 5568 5566 5565 5563 5561 5560 5558 5558 5557 5555 5553 5552 5550 5549 5547 5544 5541 5539 5536 5532 5530 5527 5524 5521 5517 5512 5508 5505 5502 5499
5562 5564 5565 5565 5567 5568 5570 5571 5571 5572 5572 5572 5572 5572 5572 5572 5572 5571 5571 5571 5572 5572 5573 5573 5572 5573 5574 5575 5575 5575 5574 5574 5575 5576 5577 5577 5578 5579 5580 5580 5580 5580 5580 5578 5576 5575 5575 5574 5573 5571 5570 5567 5565 5564 5562 5560 5558 5556 5554 5552 5551 5549 5548 5547 5546 5544 5543 5542 5540 5539 5537 5534 5532 5529 5526 5523 5521 5518 5515 5511 5508 5504 5500 5497 5493
5552 5554 5555 5556 5558 5559 5560 5561 5561 5561 5561 5561 5561 5561 5561 5561 5560 5560 5561 5562 5564 5565 5566 5566 5565 5564 5565 5566 5567 5566 5564 5565 5566 5567 5568 5569 5570 5571 5571 5571 5572 5572 5572 5571 5570 5569 5568 5567 5566 5564 5562 5560 5558 5557 5555 5552 5550 5548 5546 5544 5542 5540 5539 5537 5536 5535 5534 5533 5531 5530 5529 5526 5524 5522 5519 5516 5514 5511 5508 5505 5502 5498 5495 5492 5489
5544 5545 5547 5548 5549 5550 5551 5551 5551 5551 5551 5551 5552 5552 5552 5551 5552 5553 5555 5556 5557 5557 5558 5557 5556 5555 5555 5556 5557 5557 5556 5556 5558 5559 5559 5560 5561 5563 5563 5563 5563 5564 5564 5563 5562 5562 5562 5561 5559 5558 5555 5553 5551 5550 5548 5545 5543 5541 5538 5535 5534 5531 5529 5528 5527 5526 5525 5524 5522 5521 5520 5518 5515 5513 5511 5509 5506 5504 5501 5498 5495 5492 5489 5486 5484
5536 5537 5539 5540 5541 5541 5542 5541 5541 5542 5541 5542 5543 5543 5543 5544 5545 5546 5547 5548 5548 5548 5548 5547 5547 5546 5546 5546 5547 5547 5547 5548 5549 5551 5551 5551 5553 5554 5555 5555 5555 5555 5555 5554 5554 5554 5554 5553 5552 5550 5548 5546 5545 5543 5541 5538 5536 5533 5530 5527 5525 5523 5521 5519 5518 5516 5516 5514 5513 5512 5511 5509 5507 5505 5503 5500 5498 5496 5493 5490 5488 5486 5483 5480 5478
5528 5529 5531 5532 5532 5532 5532 5531 5531 5532 5532 5533 5534 5535 5535 5536 5536 5537 5539 5539 5539 5539 5538 5537 5537 5537 5537 5537 5537 5538 5539 5539 5541 5542 5543 5543 5544 5545 5546 5546 5546 5546 5546 5546 5546 5546 5546 5545 5543 5541 5540 5538 5537 5535 5533 5531 5528 5526 5523 5520 5517 5515 5512 5510 5509 5507 5506 5505 5503 5502 5501 5499 5498 5496 5494 5492 5490 5487 5484 5482 5480 5478 5475 5472 5471
5520 5521 5521 5521 5521 5521 5522 5522 5523 5523 5523 5524 5525 5526 5526 5526 5527 5528 5530 5530 5530 5529 5529 5528 5528 5529 5529 5529 5529 5530 5530 5530 5532 5533 5534 5535 5536 5536 5537 5537 5537 5537 5537 5537 5537 5537 5537 5535 5534 5532 5531 5530 5528 5527 5524 5522 5520 5517 5514 5512 5509 5506 5504 5501 5499 5498 5496 5495 5493 5492 5491 5489 5488 5486 5484 5483 5481 5478 5475 5473 5471 5470 5467 5465 5464
5509 5511 5511 5511 5511 5512 5513 5514 5514 5515 5515 5516 5516 5517 5518 5518 5518 5519 5520 5521 5521 5520 5519 5519 5519 5521 5522 5522 5522 5523 5522 5522 5523 5524 5525 5526 5527 5527 5528 5528 5527 5527 5527 5527 5528 5528 5527 5526 5524 5523 5522 5520 5519 5517 5515 5513 5511 5508 5505 5502 5500 5497 5495 5492 5490 5488 5486 5485 5484 5482 5481 5479 5478 5476 5474 5473 5472 5469 5466 5464 5462 5461 5459 5457 5455
5498 5499 5501 5502 5502 5502 5503 5504 5505 5506 5506 5507 5508 5509 5509 5509 5509 5510 5511 5512 5512 5512 5511 5510 5510 5512 5513 5513 5514 5516 5515 5514 5515 5516 5517 5517 5518 5518 5518 5518 5518 5518 5518 5518 5518 5518 5518 5516 5515 5513 5511 5510 5508 5507 5505 5503 5501 5499 5496 5493 5491 5488 5486 5483 5481 5479 5477 5475 5473 5472 5471 5470 5469 5467 5465 5464 5463 5461 5457 5455 5452 5451 5449 5448 5447
5487 5489 5491 5492 5492 5494 5494 5495 5496 5497 5497 5498 5499 5499 5500 5500 5501 5501 5502 5503 5503 5503 5502 5501 5501 5503 5504 5504 5505 5506 5507 5507 5507 5507 5508 5508 5508 5509 5509 5509 5509 5509 5508 5508 5508 5507 5507 5506 5505 5503 5501 5500 5498 5497 5495 5494 5492 5490 5487 5485 5482 5479 5476 5474 5471 5469 5467 5466 5464 5462 5461 5460 5459 5458 5456 5455 5454 5452 5449 5446 5443 5441 5440 5438 5437
5477 5479 5481 5481 5483 5485 5485 5486 5486 5487 5488 5489 5489 5490 5491 5491 5492 5492 5492 5493 5494 5494 5494 5494 5493 5494 5495 5496 5497 5497 5498 5498 5499 5499 5499 5499 5499 5499 5499 5499 5499 5498 5497 5497 5498 5497 5495 5495 5494 5493 5491 5490 5488 5486 5485 5484 5482 5479 5477 5475 5473 5470 5467 5464 5462 5460 5458 5456 5454 5453 5451 5450 5448 5448 5447 5445 5443 5442 5440 5438 5435 5432 5431 5429 5428
5469 5470 5471 5473 5474 5476 5476 5476 5477 5478 5478 5479 5480 5480 5482 5482 5483 5483 5483 5483 5484 5485 5485 5486 5486 5486 5486 5487 5488 5488 5489 5489 5490 5490 5490 5490 5490 5490 5489 5489 5489 5488 5487 5486 5486 5486 5484 5483 5483 5482 5480 5479 5478 5476 5474 5473 5471 5469 5467 5464 5462 5460 5457 5454 5452 5450 5448 5446 5444 5443 5441 5439 5438 5437 5436 5434 5433 5432 5430 5428 5425 5423 5421 5420 5418
5460 5461 5463 5464 5466 5466 5466 5467 5468 5468 5469 5470 5470 5471 5472 5473 5474 5474 5474 5475 5475 5475 5476 5477 5478 5478 5478 5478 5478 5479 5480 5480 5480 5480 5480 5480 5480 5480 5480 5479 5479 5478 5477 5476 5476 5475 5474 5473 5472 5471 5470 5469 5467 5466 5464 5462 5460 5458 5456 5454 5452 5450 5447 5444 5442 5439 5438 5436 5434 5432 5431 5429 5427 5425 5424 5423 5422 5420 5419 5418 5416 5413 5411 5409 5408
5452 5453 5454 5455 5456 5457 5457 5458 5459 5460 5461 5461 5462 5463 5464 5465 5466 5466 5466 5466 5466 5467 5467 5468 5468 5469 5469 5469 5469 5470 5470 5470 5470 5469 5469 5469 5469 5469 5469 5469 5468 5467 5467 5466 5465 5465 5464 5463 5462 5461 5459 5458 5457 5455 5453 5451 5449 5447 5445 5443 5441 5439 5437 5434 5431 5429 5427 5425 5423 5421 5419 5417 5415 5414 5412 5411 5410 5408 5407 5406 5404 5403 5401 5399 5397
5444 5445 5446 5447 5447 5448 5449 5450 5451 5452 5453 5453 5454 5455 5455 5456 5457 5458 5458 5458 5458 5458 5458 5458 5459 5459 5459 5459 5460 5460 5459 5459 5459 5459 5459 5459 5459 5458 5458 5457 5457 5457 5456 5455 5455 5454 5453 5452 5451 5450 5448 5447 5445 5443 5441 5440 5438 5435 5433 5432 5430 5429 5426 5424 5421 5418 5416 5414 5412 5409 5408 5406 5404 5402 5399 5399 5398 5396 5395 5394 5392 5391 5390 5388 5386
5436 5437 5438 5439 5439 5440 5441 5442 5443 5444 5445 5445 5446 5446 5447 5448 5449 5449 5449 5449 5449 5449 5449 5449 5449 5450 5449 5450 5450 5450 5449 5449 5449 5449 5449 5449 5448 5448 5447 5447 5446 5445 5445 5444 5444 5443 5442 5441 5440 5438 5437 5436 5434 5432 5430 5428 5426 5424 5422 5420 5418 5417 5415 5413 5410 5407 5405 5403 5401 5398 5396 5394 5392 5390 5387 5386 5386 5384 5382 5381 5379 5378 5377 5376 5375
5428 5429 5430 5431 5431 5432 5433 5434 5435 5436 5436 5437 5437 5437 5438 5439 5439 5440 5440 5440 5440 5440 5440 5440 5440 5440 5440 5440 5440 5439 5439 5440 5439 5439 5439 5438 5438 5437 5436 5435 5435 5434 5434 5433 5433 5432 5431 5429 5428 5427 5425 5424 5422 5420 5418 5416 5414 5412 5411 5409 5407 5405 5403 5401 5399 5396 5393 5391 5389 5386 5384 5382 5380 5377 5375 5373 5373 5371 5370 5368 5366 5364 5364 5363 5362
5419 5421 5421 5422 5423 5424 5424 5425 5426 5427 5427 5427 5428 5428 5428 5429 5429 5430 5431 5431 5431 5431 5431 5431 5431 5431 5431 5431 5430 5430 5430 5430 5429 5429 5428 5427 5427 5426 5425 5425 5424 5424 5423 5422 5421 5420 5419 5418 5417 5415 5413 5411 5410 5408 5406 5404 5402 5400 5398 5396 5395 5393 5391 5388 5386 5384 5381 5379 5376 5374 5371 5369 5367 5364 5362 5360 5359 5358 5356 5355 5353 5350 5349 5349 5349
5410 5411 5412 5413 5413 5414 5415 5416 5416 5417 5417 5417 5418 5418 5419 5419 5419 5420 5420 5421 5421 5421 5421 5422 5422 5422 5422 5421 5421 5421 5420 5420 5419 5418 5418 5417 5416 5416 5415 5415 5414 5413 5413 5412 5411 5410 5408 5407 5405 5403 5401 5399 5397 5395 5393 5391 5390 5388 5386 5384 5382 5381 5379 5376 5374 5371 5369 5367 5364 5361 5359 5357 5354 5351 5349 5346 5344 5342 5340 5339 5338 5336 5335 5335 5335
5399 5400 5401 5402 5403 5403 5405 5405 5406 5407 5408 5408 5408 5409 5409 5409 5409 5409 5410 5410 5410 5410 5411 5411 5411 5411 5411 5411 5410 5410 5410 5409 5409 5408 5408 5407 5406 5405 5405 5404 5403 5403 5402 5401 5400 5399 5397 5395 5393 5391 5389 5387 5385 5383 5381 5379 5377 5376 5374 5372 5370 5368 5367 5364 5362 5358 5356 5354 5352 5349 5346 5344 5341 5338 5335 5332 5329 5327 5324 5322 5321 5320 5319 5319 5319
5388 5389 5390 5391 5392 5393 5394 5395 5396 5397 5397 5398 5398 5399 5399 5399 5399 5399 5399 5400 5400 5400 5400 5400 5400 5400 5400 5400 5400 5399 5399 5399 5398 5398 5397 5396 5395 5395 5394 5393 5392 5392 5391 5390 5389 5388 5386 5384 5382 5379 5377 5375 5372 5370 5369 5367 5365 5363 5362 5360 5358 5356 5354 5351 5349 5346 5343 5341 5339 5336 5333 5330 5327 5323 5320 5317 5314 5311 5308 5306 5303 5301 5301 5300 5300
5378 5379 5380 5381 5382 5383 5384 5385 5385 5386 5387 5387 5388 5388 5388 5389 5389 5389 5389 5389 5389 5389 5389 5389 5389 5389 5388 5388 5388 5388 5388 5388 5387 5386 5386 5385 5384 5383 5383 5382 5381 5380 5379 5377 5376 5375 5374 5372 5370 5367 5365 5362 5360 5358 5356 5355 5353 5351 5349 5347 5345 5343 5340 5338 5336 5333 5330 5327 5325 5322 5319 5316 5312 5309 5305 5301 5297 5293 5290 5287 5283 5279 5277 5276 5276
5367 5368 5369 5370 5371 5372 5373 5373 5374 5375 5375 5376 5377 5377 5377 5377 5377 5378 5378 5378 5378 5378 5378 5377 5378 5378 5377 5377 5377 5377 5376 5376 5375 5375 5375 5374 5373 5372 5371 5370 5369 5368 5367 5365 5364 5362 5361 5359 5358 5356 5353 5351 5348 5346 5344 5342 5340 5338 5336 5334 5332 5330 5327 5324 5322 5319 5315 5313 5310 5307 5304 5300 5297 5293 5288 5284 5279 5273 5269 5266 5262 5258 5255 5253 5251
5356 5357 5357 5358 5359 5360 5361 5362 5362 5363 5363 5364 5365 5365 5365 5366 5366 5366 5367 5366 5366 5366 5366 5366 5366 5366 5365 5365 5365 5365 5364 5364 5364 5364 5363 5362 5361 5360 5359 5358 5357 5356 5355 5353 5352 5350 5348 5347 5345 5344 5341 5339 5337 5335 5332 5330 5327 5324 5322 5320 5319 5316 5313 5310 5307 5304 5301 5297 5294 5291 5288 5284 5281 5277 5271 5265 5260 5254 5250 5248 5246 5243 5241 5239 5236
5344 5345 5346 5347 5347 5348 5349 5349 5350 5350 5351 5352 5352 5353 5354 5354 5354 5355 5355 5355 5355 5355 5354 5354 5355 5354 5354 5354 5354 5353 5353 5353 5352 5352 5351 5350 5349 5348 5347 5346 5345 5344 5342 5341 5340 5338 5336 5335 5333 5332 5330 5327 5325 5323 5320 5318 5315 5312 5310 5307 5305 5302 5299 5296 5292 5289 5286 5281 5278 5275 5272 5268 5264 5259 5253 5248 5244 5241 5238 5237 5235 5233 5232 5230 5227
5333 5334 5335 5335 5336 5336 5337 5337 5337 5338 5339 5340 5340 5341 5342 5342 5343 5343 5343 5343 5343 5343 5343 5343 5343 5343 5343 5342 5342 5342 5341 5340 5340 5339 5339 5338 5337 5336 5335 5334 5333 5331 5330 5329 5328 5327 5325 5323 5321 5319 5317 5315 5313 5311 5308 5305 5303 5300 5297 5294 5291 5288 5285 5282 5278 5275 5271 5266 5262 5259 5255 5251 5247 5243 5239 5236 5233 5231 5230 5228 5227 5224 5223 5221 5219
5322 5322 5323 5324 5325 5325 5325 5325 5325 5326 5327 5327 5328 5329 5329 5330 5331 5331 5331 5331 5331 5331 5331 5331 5331 5331 5331 5330 5330 5330 5329 5329 5328 5327 5326 5326 5325 5324 5323 5322 5321 5320 5318 5317 5316 5315 5313 5311 5309 5307 5305 5303 5300 5298 5295 5292 5290 5287 5284 5281 5277 5274 5271 5267 5264 5260 5256 5251 5247 5243 5239 5235 5233 5231 5228 5226 5224 5222 5221 5220 5218 5216 5214 5213 5211
5309 5310 5311 5312 5313 5313 5314 5314 5314 5314 5315 5315 5315 5316 5317 5317 5318 5318 5318 5318 5319 5319 5319 5319 5319 5319 5318 5318 5318 5318 5317 5317 5317 5316 5315 5314 5313 5312 5311 5310 5309 5308 5307 5306 5304 5302 5301 5299 5297 5295 5293 5290 5288 5285 5282 5279 5276 5273 5270 5267 5264 5261 5257 5253 5250 5245 5240 5236 5233 5229 5226 5225 5223 5221 5219 5218 5215 5214 5213 5211 5210 5208 5207 5205 5204
5297 5298 5299 5299 5300 5300 5301 5302 5302 5303 5303 5303 5304 5304 5305 5305 5305 5306 5306 5306 5306 5307 5307 5307 5307 5307 5307 5307 5306 5306 5306 5305 5305 5304 5303 5302 5301 5300 5299 5298 5297 5296 5295 5293 5292 5291 5289 5287 5285 5283 5280 5278 5275 5272 5269 5266 5263 5260 5257 5255 5251 5248 5244 5240 5235 5230 5226 5224 5222 5220 5218 5216 5214 5212 5211 5209 5207 5206 5204 5203 5202 5200 5199 5198 5196
5285 5286 5286 5287 5287 5288 5288 5289 5289 5290 5290 5291 5291 5292 5292 5293 5293 5294 5294 5294 5294 5294 5294 5295 5295 5295 5294 5294 5294 5293 5293 5293 5292 5291 5291 5290 5289 5288 5287 5286 5284 5283 5282 5281 5279 5278 5276 5275 5273 5271 5268 5266 5264 5260 5257 5254 5251 5248 5245 5243 5239 5236 5231 5227 5223 5220 5217 5215 5214 5212 5210 5208 5206 5204 5202 5201 5199 5198 5196 5195 5194 5192 5191 5190 5188